EW5123 Weather Reports


Display with metric or nautical units.
time (UTC)temp
F
wind
direction
speed
MPH
gust
MPH
rain 1hr
in
rain 24hr
in
rain mn
in
humidity
%
barometer
mb
20260903141326 69 173 2.0 6.0 0.00 0.00 0.00 39 984.5
20260903140826 68 157 1.0 4.0 0.00 0.00 0.00 39 984.5
20260903140326 68 202 1.0 4.0 0.00 0.00 0.00 39 984.5
20260903135826 67 195 1.0 5.0 0.00 0.00 0.00 40 984.4
20260903135326 67 200 2.0 5.0 0.00 0.00 0.00 40 984.4
20260903134826 67 198 1.0 4.0 0.00 0.00 0.00 41 984.5
20260903134329 65 195 0.0 3.0 0.00 0.00 0.00 41 984.4
20260903134325 66 195 1.0 3.0 0.00 0.00 0.00 41 984.4
20260903133326 65 226 0.0 3.0 0.00 0.00 0.00 42 984.3
20260903132831 64 203 0.0 2.0 0.00 0.00 0.00 43 984.1
20260903132826 65 214 1.0 3.0 0.00 0.00 0.00 42 984.3
20260903132326 64 217 0.0 2.0 0.00 0.00 0.00 43 984.3
20260903131933 64 246 0.0 1.0 0.00 0.00 0.00 43 984.0
20260903130826 63 206 0.0 1.0 0.00 0.00 0.00 44 984.0
20260903130325 63 198 0.0 1.0 0.00 0.00 0.00 44 984.0
20260903125826 62 186 0.0 0.0 0.00 0.00 0.00 44 984.0
20260903125324 62 204 0.0 1.0 0.00 0.00 0.00 44 983.9
20260903124824 62 222 0.0 1.0 0.00 0.00 0.00 45 983.8
20260903124325 62 266 0.0 1.0 0.00 0.00 0.00 45 983.8
20260903123824 61 212 0.0 1.0 0.00 0.00 0.00 45 983.8
20260903123327 61 223 0.0 0.0 0.00 0.00 0.00 45 983.7
20260903123323 61 223 0.0 0.0 0.00 0.00 0.00 46 983.7
20260903122322 61 229 0.0 0.0 0.00 0.00 0.00 46 983.4
20260903121826 60 225 0.0 0.0 0.00 0.00 0.00 47 983.4
20260903121822 61 223 0.0 0.0 0.00 0.00 0.00 46 983.3
20260903120821 61 234 0.0 1.0 0.00 0.00 0.00 46 983.3
20260903120320 61 234 0.0 1.0 0.00 0.00 0.00 46 983.3
20260903115820 62 219 0.0 3.0 0.00 0.00 0.00 45 983.3
20260903115320 62 219 0.0 3.0 0.00 0.00 0.00 45 983.3
20260903114820 62 255 0.0 1.0 0.00 0.00 0.00 45 983.3
20260903114319 61 158 0.0 1.0 0.00 0.00 0.00 47 983.3
20260903113820 60 205 0.0 2.0 0.00 0.00 0.00 48 983.3
20260903113320 59 203 0.0 2.0 0.00 0.00 0.00 50 983.3
20260903112819 58 229 0.0 1.0 0.00 0.00 0.00 53 983.3
20260903112320 57 205 0.0 1.0 0.00 0.00 0.00 55 983.3
20260903111819 56 210 0.0 0.0 0.00 0.00 0.00 57 983.4
20260903111319 54 210 0.0 0.0 0.00 0.00 0.00 62 983.3
20260903110819 53 160 0.0 0.0 0.00 0.00 0.00 67 983.3
20260903110324 53 160 0.0 0.0 0.00 0.00 0.00 67 983.3
20260903110320 53 160 0.0 0.0 0.00 0.00 0.00 67 983.3
20260903105319 53 160 0.0 0.0 0.00 0.00 0.00 66 983.4
20260903104820 54 158 0.0 0.0 0.00 0.00 0.00 65 983.3
20260903104317 54 158 0.0 0.0 0.00 0.00 0.00 64 983.3
20260903103817 54 158 0.0 0.0 0.00 0.00 0.00 65 983.3
20260903103318 53 158 0.0 0.0 0.00 0.00 0.00 68 983.3
20260903102821 53 160 0.0 0.0 0.00 0.00 0.00 70 983.3
20260903102817 54 158 0.0 0.0 0.00 0.00 0.00 69 983.2
20260903101817 53 141 0.0 0.0 0.00 0.00 0.00 71 983.3
20260903101318 53 165 0.0 0.0 0.00 0.00 0.00 72 983.2
20260903100818 53 356 0.0 1.0 0.00 0.00 0.00 71 983.2
20260903100315 53 356 0.0 1.0 0.00 0.00 0.00 72 983.1
20260903095815 53 228 0.0 0.0 0.00 0.00 0.00 73 983.1
20260903095316 53 193 0.0 0.0 0.00 0.00 0.00 73 983.2
20260903094815 54 252 0.0 0.0 0.00 0.00 0.00 73 983.2
20260903094315 54 212 0.0 0.0 0.00 0.00 0.00 73 983.2
20260903093813 54 212 0.0 0.0 0.00 0.00 0.00 72 983.2
20260903093314 54 212 0.0 0.0 0.00 0.00 0.00 71 983.3
20260903092813 55 212 0.0 0.0 0.00 0.00 0.00 70 983.2
20260903092313 55 212 0.0 0.0 0.00 0.00 0.00 69 983.2
20260903091814 56 157 0.0 0.0 0.00 0.00 0.00 70 983.2
20260903091313 56 157 0.0 2.0 0.00 0.00 0.00 70 983.2
20260903090815 55 158 0.0 2.0 0.00 0.00 0.00 73 983.2
20260903090313 54 161 0.0 1.0 0.00 0.00 0.00 74 983.2
20260903085813 54 338 0.0 2.0 0.00 0.00 0.00 74 983.3
20260903085314 54 15 0.0 2.0 0.00 0.00 0.00 76 983.4
20260903084814 54 160 0.0 1.0 0.00 0.00 0.00 74 983.2
20260903084313 54 212 0.0 0.0 0.00 0.00 0.00 74 983.2
20260903083814 53 96 0.0 0.0 0.00 0.00 0.00 76 983.2
20260903083313 53 170 0.0 0.0 0.00 0.00 0.00 77 983.2
20260903082813 53 170 0.0 0.0 0.00 0.00 0.00 76 983.2
20260903082311 53 170 0.0 0.0 0.00 0.00 0.00 76 983.1
20260903081811 54 170 0.0 0.0 0.00 0.00 0.00 75 983.1
20260903081311 54 170 0.0 0.0 0.00 0.00 0.00 75 983.2
20260903080809 54 170 0.0 0.0 0.00 0.00 0.00 76 983.3
20260903080309 54 157 0.0 1.0 0.00 0.00 0.00 76 983.3
20260903075809 54 131 0.0 1.0 0.00 0.00 0.00 76 983.4
20260903075309 54 217 0.0 0.0 0.00 0.00 0.00 76 983.4
20260903074809 54 220 0.0 0.0 0.00 0.00 0.00 76 983.5
20260903074309 55 108 0.0 0.0 0.00 0.00 0.00 75 983.4
20260903073811 55 204 0.0 0.0 0.00 0.00 0.00 75 983.4
20260903073309 55 213 0.0 0.0 0.00 0.00 0.00 74 983.5
20260903072809 55 213 0.0 0.0 0.00 0.00 0.00 74 983.5
20260903072313 56 213 0.0 0.0 0.00 0.00 0.00 72 983.5
20260903072309 56 213 0.0 0.0 0.00 0.00 0.00 73 983.5
20260903071312 57 213 0.0 0.0 0.00 0.00 0.00 70 983.8
20260903071308 56 213 0.0 0.0 0.00 0.00 0.00 71 983.7
20260903070307 58 213 0.0 0.0 0.00 0.00 0.00 69 983.8
20260903065807 58 213 0.0 0.0 0.00 0.00 0.00 67 983.8
20260903065307 58 213 0.0 0.0 0.00 0.00 0.00 66 983.8
20260903064811 58 212 0.0 0.0 0.00 0.00 0.00 68 983.7
20260903064807 58 213 0.0 0.0 0.00 0.00 0.00 68 983.8
20260903063806 58 165 0.0 0.0 0.00 0.00 0.00 68 983.8
20260903063306 58 164 0.0 0.0 0.00 0.00 0.00 68 983.8
20260903062806 58 160 0.0 0.0 0.00 0.00 0.00 68 983.8
20260903062306 59 182 0.0 0.0 0.00 0.00 0.00 66 983.8
20260903061805 60 184 0.0 0.0 0.00 0.00 0.00 64 983.7
20260903061307 61 184 0.0 0.0 0.00 0.00 0.00 62 983.8
20260903060805 62 184 0.0 0.0 0.00 0.00 0.00 60 983.9
20260903060305 62 184 0.0 1.0 0.00 0.00 0.00 59 984.0
20260903055809 62 198 0.0 2.0 0.00 0.00 0.00 60 983.8
20260903055805 62 208 0.0 1.0 0.00 0.00 0.00 59 983.9
20260903054804 62 224 0.0 2.0 0.00 0.00 0.00 60 983.8
20260903054302 62 245 0.0 1.0 0.00 0.00 0.00 61 983.9
20260903053802 61 212 0.0 1.0 0.00 0.00 0.00 62 983.9
20260903053306 61 222 0.0 0.0 0.00 0.00 0.00 61 983.9
20260903053302 60 214 0.0 0.0 0.00 0.00 0.00 63 984.0
20260903052307 62 222 0.0 0.0 0.00 0.00 0.00 59 983.9
20260903051302 63 222 0.0 1.0 0.00 0.00 0.00 58 984.0
20260903050802 63 187 0.0 2.0 0.00 0.00 0.00 57 984.0
20260903050305 63 290 0.0 2.0 0.00 0.00 0.00 57 984.1
20260903050301 63 198 0.0 2.0 0.00 0.00 0.00 57 984.1
20260903045300 62 137 0.0 0.0 0.00 0.00 0.00 59 984.1
20260903044800 63 127 0.0 0.0 0.00 0.00 0.00 57 984.0
20260903044300 63 8 0.0 0.0 0.00 0.00 0.00 55 984.1
20260903043805 65 8 0.0 0.0 0.00 0.00 0.00 53 984.1
20260903043800 64 9 0.0 0.0 0.00 0.00 0.00 55 984.1
20260903042758 65 2 0.0 0.0 0.00 0.00 0.00 52 984.1
20260903042259 66 348 0.0 0.0 0.00 0.00 0.00 51 984.1
20260903041757 66 348 0.0 0.0 0.00 0.00 0.00 51 984.1
20260903041300 67 353 0.0 1.0 0.00 0.00 0.00 51 984.1
20260903041256 66 348 0.0 0.0 0.00 0.00 0.00 51 984.0
20260903040859 67 353 0.0 1.0 0.00 0.00 0.00 51 984.1
20260903035758 67 223 0.0 0.0 0.00 0.00 0.00 49 984.0
20260903035754 67 340 0.0 1.0 0.00 0.00 0.00 50 984.1
20260903034758 68 217 0.0 0.0 0.00 0.00 0.00 48 983.9
20260903034754 68 223 0.0 0.0 0.00 0.00 0.00 48 983.9
20260903033754 69 237 0.0 2.0 0.00 0.00 0.00 46 983.9
20260903033254 69 297 0.0 4.0 0.00 0.00 0.00 45 983.9
20260903032754 70 292 1.0 7.0 0.00 0.00 0.00 44 983.7
20260903032253 70 291 1.0 7.0 0.00 0.00 0.00 42 983.5
20260903031754 71 356 0.0 3.0 0.00 0.00 0.00 42 983.5
20260903031254 71 294 0.0 5.0 0.00 0.00 0.00 41 983.5
20260903030754 71 331 1.0 5.0 0.00 0.00 0.00 41 983.5
20260903030253 72 5 2.0 7.0 0.00 0.00 0.00 41 983.4
20260903025754 72 14 3.0 8.0 0.00 0.00 0.00 40 983.4
20260903025258 73 332 4.0 10.0 0.00 0.00 0.00 39 983.2
20260903025254 72 329 4.0 10.0 0.00 0.00 0.00 39 983.4
20260903024254 73 11 5.0 12.0 0.00 0.00 0.00 38 983.2
20260903023754 73 323 6.0 12.0 0.00 0.00 0.00 37 983.1
20260903023257 74 345 2.0 11.0 0.00 0.00 0.00 38 982.8
20260903023253 73 333 4.0 12.0 0.00 0.00 0.00 37 983.1
20260903022254 74 355 1.0 6.0 0.00 0.00 0.00 40 982.6
20260903021758 74 208 0.0 4.0 0.00 0.00 0.00 38 982.2
20260903021754 74 323 0.0 5.0 0.00 0.00 0.00 40 982.4
20260903020757 75 303 0.0 2.0 0.00 0.00 0.00 34 981.9
20260903020753 75 301 0.0 4.0 0.00 0.00 0.00 37 982.0
20260903015754 75 342 0.0 2.0 0.00 0.00 0.00 35 981.8
20260903015257 75 205 0.0 0.0 0.00 0.00 0.00 38 981.7
20260903015253 74 301 0.0 1.0 0.00 0.00 0.00 37 981.8
20260903014251 76 203 0.0 2.0 0.00 0.00 0.00 37 981.7
20260903013753 76 204 0.0 7.0 0.00 0.00 0.00 38 981.8
20260903013252 77 110 3.0 9.0 0.00 0.00 0.00 33 982.1
20260903012755 77 193 1.0 6.0 0.00 0.00 0.00 34 981.8
20260903012751 77 110 3.0 9.0 0.00 0.00 0.00 35 981.9
20260903012246 77 194 1.0 5.0 0.00 0.00 0.00 33 981.4
20260903011851 78 206 0.0 4.0 0.00 0.00 0.00 34 981.4
20260903010745 78 217 1.0 5.0 0.00 0.00 0.00 33 981.3
20260903010250 79 212 0.0 2.0 0.00 0.00 0.00 29 981.3
20260903010246 78 255 1.0 5.0 0.00 0.00 0.00 31 981.3
20260903005851 79 212 0.0 2.0 0.00 0.00 0.00 28 981.4
20260903004743 79 219 0.0 1.0 0.00 0.00 0.00 28 981.3
20260903004244 80 238 0.0 2.0 0.00 0.00 0.00 27 981.3
20260903003748 80 233 1.0 5.0 0.00 0.00 0.00 25 981.3
20260903003743 80 293 0.0 4.0 0.00 0.00 0.00 26 981.3
20260903002741 80 203 2.0 5.0 0.00 0.00 0.00 25 981.2
20260903002241 81 193 3.0 8.0 0.00 0.00 0.00 25 981.1
20260903001241 82 191 4.0 8.0 0.00 0.00 0.00 24 981.1
20260903000741 83 203 5.0 8.0 0.00 0.00 0.00 23 980.9
20260903000241 83 167 4.0 10.0 0.00 0.00 0.00 23 980.9
20260902235739 85 156 5.0 13.0 0.00 0.00 0.00 23 980.8
20260902235241 86 184 6.0 13.0 0.00 0.00 0.00 22 980.9
20260902234739 87 175 4.0 12.0 0.00 0.00 0.00 22 980.9
20260902234239 88 215 1.0 12.0 0.00 0.00 0.00 21 980.8
20260902233739 88 171 1.0 5.0 0.00 0.00 0.00 21 980.9
20260902233243 89 212 1.0 4.0 0.00 0.00 0.00 19 980.9
20260902233239 88 179 1.0 5.0 0.00 0.00 0.00 20 980.9
20260902232239 89 165 2.0 6.0 0.00 0.00 0.00 20 981.1
20260902231739 88 131 2.0 9.0 0.00 0.00 0.00 21 981.1
20260902231238 88 145 2.0 9.0 0.00 0.00 0.00 21 981.2
20260902230737 89 182 0.0 5.0 0.00 0.00 0.00 19 981.1
20260902230238 88 143 0.0 7.0 0.00 0.00 0.00 21 981.1
20260902225737 88 94 0.0 7.0 0.00 0.00 0.00 20 981.2
20260902225241 84 139 2.0 9.0 0.00 0.00 0.00 24 981.3
20260902225237 86 149 0.0 3.0 0.00 0.00 0.00 22 981.3
20260902224237 84 356 2.0 9.0 0.00 0.00 0.00 24 981.3
20260902223737 85 321 1.0 9.0 0.00 0.00 0.00 26 981.4
20260902223237 84 168 0.0 7.0 0.00 0.00 0.00 26 981.5
20260902222737 83 353 1.0 3.0 0.00 0.00 0.00 26 981.4
20260902222239 84 299 1.0 4.0 0.00 0.00 0.00 26 981.7
20260902222235 85 263 1.0 5.0 0.00 0.00 0.00 26 981.7
20260902221840 86 294 1.0 5.0 0.00 0.00 0.00 25 981.9
20260902220735 86 311 0.0 3.0 0.00 0.00 0.00 25 982.0
20260902220235 86 90 1.0 6.0 0.00 0.00 0.00 26 982.0
20260902215735 85 317 1.0 6.0 0.00 0.00 0.00 28 982.0
20260902215235 84 357 1.0 4.0 0.00 0.00 0.00 29 982.1
20260902214735 83 297 1.0 6.0 0.00 0.00 0.00 29 982.2
20260902214234 81 1 1.0 6.0 0.00 0.00 0.00 30 982.2
20260902213735 81 274 2.0 8.0 0.00 0.00 0.00 30 982.4
20260902213235 81 2 2.0 9.0 0.00 0.00 0.00 29 982.5
20260902212733 82 347 1.0 9.0 0.00 0.00 0.00 29 982.6
20260902212233 82 335 1.0 9.0 0.00 0.00 0.00 29 982.5
20260902211734 81 86 2.0 9.0 0.00 0.00 0.00 29 982.7
20260902211233 82 46 2.0 10.0 0.00 0.00 0.00 29 982.7
20260902210731 83 321 3.0 11.0 0.00 0.00 0.00 28 982.7
20260902210231 83 317 3.0 16.0 0.00 0.00 0.00 28 982.7
20260902205731 84 11 2.0 16.0 0.00 0.00 0.00 27 982.8
20260902205237 84 339 2.0 13.0 0.00 0.00 0.00 27 983.0
20260902205232 83 309 2.0 11.0 0.00 0.00 0.00 27 983.0
20260902204234 85 351 2.0 11.0 0.00 0.00 0.00 26 983.1
20260902204230 85 283 2.0 13.0 0.00 0.00 0.00 27 983.0
20260902203727 83 332 2.0 9.0 0.00 0.00 0.00 27 983.1
20260902202727 84 357 1.0 5.0 0.00 0.00 0.00 25 983.0
20260902202226 85 292 0.0 4.0 0.00 0.00 0.00 25 983.0
20260902201727 86 188 0.0 4.0 0.00 0.00 0.00 24 983.2
20260902201227 86 117 1.0 6.0 0.00 0.00 0.00 21 983.1
20260902200727 87 148 1.0 6.0 0.00 0.00 0.00 20 983.2
20260902200226 86 219 1.0 7.0 0.00 0.00 0.00 24 983.1
20260902195725 84 299 4.0 15.0 0.00 0.00 0.00 23 983.1
20260902195230 83 49 7.0 16.0 0.00 0.00 0.00 25 983.2
20260902194725 82 340 7.0 16.0 0.00 0.00 0.00 25 983.3
20260902194229 82 30 2.0 10.0 0.00 0.00 0.00 26 983.4
20260902194224 82 354 5.0 12.0 0.00 0.00 0.00 25 983.3
20260902193224 81 1 2.0 6.0 0.00 0.00 0.00 26 983.5
20260902192725 82 323 3.0 9.0 0.00 0.00 0.00 26 983.5
20260902192224 82 320 4.0 9.0 0.00 0.00 0.00 25 983.7
20260902191725 83 313 4.0 21.0 0.00 0.00 0.00 25 983.5
20260902191224 82 338 3.0 21.0 0.00 0.00 0.00 25 983.4
20260902190725 83 252 1.0 5.0 0.00 0.00 0.00 24 983.9
20260902190225 85 319 1.0 6.0 0.00 0.00 0.00 22 984.0
20260902185725 86 289 1.0 6.0 0.00 0.00 0.00 23 984.0
20260902185225 85 322 1.0 6.0 0.00 0.00 0.00 24 984.1
20260902184725 84 6 1.0 6.0 0.00 0.00 0.00 24 984.3
20260902184224 83 312 1.0 4.0 0.00 0.00 0.00 24 984.4
20260902183725 83 329 1.0 7.0 0.00 0.00 0.00 25 984.4
20260902183224 84 293 1.0 7.0 0.00 0.00 0.00 23 984.4
20260902182725 85 356 1.0 5.0 0.00 0.00 0.00 23 984.6
20260902182228 84 347 0.0 3.0 0.00 0.00 0.00 24 984.8
20260902182224 85 328 0.0 5.0 0.00 0.00 0.00 24 984.7
20260902181831 83 285 0.0 3.0 0.00 0.00 0.00 25 985.0
20260902181330 82 11 0.0 3.0 0.00 0.00 0.00 25 985.1
20260902180830 80 354 2.0 8.0 0.00 0.00 0.00 25 985.2
20260902175727 81 321 2.0 7.0 0.00 0.00 0.00 25 985.2
20260902175723 80 323 3.0 8.0 0.00 0.00 0.00 26 985.2
20260902174723 81 35 1.0 4.0 0.00 0.00 0.00 25 985.2
20260902174223 82 339 1.0 4.0 0.00 0.00 0.00 24 985.3
20260902173723 82 5 0.0 4.0 0.00 0.00 0.00 26 985.4
20260902173222 81 111 2.0 7.0 0.00 0.00 0.00 26 985.6
20260902172720 80 210 2.0 7.0 0.00 0.00 0.00 26 985.6
20260902172221 80 272 1.0 6.0 0.00 0.00 0.00 26 985.6
20260902171720 80 325 1.0 4.0 0.00 0.00 0.00 25 985.7
20260902171221 80 335 1.0 6.0 0.00 0.00 0.00 25 985.7
20260902170720 80 315 2.0 8.0 0.00 0.00 0.00 26 985.8
20260902170225 80 179 1.0 8.0 0.00 0.00 0.00 25 985.9
20260902170220 80 193 2.0 8.0 0.00 0.00 0.00 26 985.8
20260902165223 80 221 2.0 9.0 0.00 0.00 0.00 26 985.9
20260902165218 80 123 3.0 9.0 0.00 0.00 0.00 26 985.8
20260902164824 80 314 2.0 9.0 0.00 0.00 0.00 26 985.9
20260902163719 79 229 2.0 9.0 0.00 0.00 0.00 25 985.8
20260902163218 79 128 2.0 6.0 0.00 0.00 0.00 26 985.8
20260902162719 79 205 1.0 6.0 0.00 0.00 0.00 25 985.8
20260902162222 78 110 2.0 6.0 0.00 0.00 0.00 27 985.9
20260902162218 79 217 2.0 6.0 0.00 0.00 0.00 25 985.8
20260902161217 78 304 1.0 5.0 0.00 0.00 0.00 27 985.9
20260902160718 78 226 2.0 6.0 0.00 0.00 0.00 28 985.9
20260902160218 78 197 2.0 6.0 0.00 0.00 0.00 28 986.0
20260902155718 77 196 1.0 5.0 0.00 0.00 0.00 28 986.0
20260902155221 76 89 1.0 6.0 0.00 0.00 0.00 28 986.0
20260902154716 76 203 1.0 6.0 0.00 0.00 0.00 28 986.1
20260902154221 76 217 1.0 4.0 0.00 0.00 0.00 30 986.1
20260902154217 76 219 1.0 6.0 0.00 0.00 0.00 28 986.1
20260902153214 76 184 1.0 4.0 0.00 0.00 0.00 29 986.1
20260902152714 75 145 1.0 3.0 0.00 0.00 0.00 30 986.3
20260902152214 75 214 1.0 3.0 0.00 0.00 0.00 31 986.3
20260902151714 74 154 1.0 4.0 0.00 0.00 0.00 30 986.3
20260902151214 74 205 0.0 4.0 0.00 0.00 0.00 30 986.3
20260902150714 73 201 0.0 2.0 0.00 0.00 0.00 31 986.1
20260902150214 72 235 0.0 2.0 0.00 0.00 0.00 34 986.3
20260902145719 71 216 0.0 3.0 0.00 0.00 0.00 35 986.4
20260902145714 71 216 0.0 3.0 0.00 0.00 0.00 34 986.4
20260902144718 69 214 0.0 3.0 0.00 0.00 0.00 37 986.4
20260902144713 68 188 1.0 3.0 0.00 0.00 0.00 38 986.4
20260902143712 67 130 1.0 3.0 0.00 0.00 0.00 40 986.3
20260902143212 67 202 0.0 3.0 0.00 0.00 0.00 45 986.4
20260902142716 64 228 0.0 1.0 0.00 0.00 0.00 50 986.3
20260902142712 65 258 0.0 2.0 0.00 0.00 0.00 44 986.3
20260902141717 60 191 0.0 2.0 0.00 0.00 0.00 65 986.0
20260902141712 62 192 0.0 2.0 0.00 0.00 0.00 57 986.3